GW1920 Weather Reports


Display with metric or nautical units.
time (UTC)temp
F
wind
direction
speed
MPH
gust
MPH
rain 1hr
in
rain 24hr
in
rain mn
in
humidity
%
barometer
mb
20260504050445 52 21 0.0 0.0 0.00 0.01 0.01 99 1008.6
20260504045942 52 6 0.0 0.0 0.00 0.01 0.01 99 1008.8
20260504045438 52 23 0.0 0.0 0.00 0.01 0.01 99 1008.7
20260504044934 52 23 0.0 0.0 0.00 0.01 0.01 99 1008.7
20260504044432 52 23 0.0 0.0 0.00 0.01 0.01 99 1008.7
20260504043929 52 24 0.0 0.0 0.00 0.01 0.01 99 1008.9
20260504043426 52 24 0.0 0.0 0.00 0.01 0.01 99 1008.6
20260504042923 52 23 0.0 0.0 0.00 0.01 0.01 99 1008.8
20260504042420 52 22 0.0 0.0 0.00 0.01 0.01 99 1008.8
20260504041916 52 22 0.0 0.0 0.00 0.01 0.01 99 1008.8
20260504041412 52 32 0.0 0.0 0.00 0.01 0.01 99 1009.2
20260504040908 52 33 0.0 0.0 0.00 0.01 0.01 99 1008.9
20260504040407 52 32 0.0 0.0 0.00 0.01 0.01 99 1009.2
20260504035902 52 30 0.0 0.0 0.00 0.01 0.01 99 1009.5
20260504035400 52 46 0.0 0.0 0.00 0.01 0.01 99 1009.7
20260504034856 52 30 0.0 0.0 0.00 0.01 0.01 99 1009.6
20260504034354 52 29 0.0 0.0 0.00 0.01 0.01 99 1010.0
20260504033850 52 29 0.0 0.0 0.00 0.01 0.01 99 1010.1
20260504033349 52 29 0.0 0.0 0.00 0.01 0.01 99 1010.1
20260504032845 52 29 0.0 0.0 0.00 0.01 0.01 99 1010.0
20260504032342 52 30 0.0 0.0 0.00 0.01 0.01 99 1010.2
20260504031839 52 32 0.0 0.0 0.00 0.01 0.01 99 1009.9
20260504031336 52 13 0.0 0.0 0.00 0.01 0.01 99 1010.0
20260504030832 52 3 0.0 0.0 0.00 0.01 0.01 99 1009.8
20260504030330 52 352 0.0 0.0 0.00 0.01 0.01 99 1009.5
20260504025826 52 352 0.0 0.0 0.00 0.01 0.01 99 1009.4
20260504025323 52 352 1.0 1.0 0.00 0.01 0.01 99 1009.1
20260504024819 52 2 0.0 0.0 0.00 0.01 0.01 99 1008.8
20260504024316 52 14 0.0 0.0 0.00 0.01 0.01 99 1008.5
20260504023813 52 353 0.0 0.0 0.00 0.01 0.01 99 1008.2
20260504023309 53 12 0.0 0.0 0.00 0.01 0.01 99 1008.1
20260504022805 53 4 0.0 0.0 0.00 0.01 0.01 99 1008.0
20260504022304 53 349 0.0 0.0 0.00 0.01 0.01 99 1008.2
20260504021758 53 17 0.0 0.0 0.00 0.01 0.01 99 1008.2
20260504021256 53 23 0.0 0.0 0.00 0.01 0.01 98 1008.2
20260504020753 53 357 0.0 0.0 0.05 0.01 0.01 98 1008.2
20260504020249 53 5 0.0 0.0 0.05 0.01 0.01 98 1008.2
20260504015745 53 6 0.0 0.0 0.00 0.00 0.00 97 1008.4
20260504015242 53 25 0.0 0.0 0.00 0.00 0.00 97 1008.2
20260504014738 53 19 0.0 0.0 0.00 0.00 0.00 96 1008.3
20260504014234 53 14 0.0 0.0 0.00 0.00 0.00 96 1008.5
20260504013732 53 4 0.0 0.0 0.00 0.00 0.00 96 1008.4
20260504013230 53 2 0.0 0.0 0.00 0.00 0.00 96 1008.4
20260504012726 53 23 0.0 1.0 0.00 0.00 0.00 96 1008.1
20260504012224 53 17 0.0 0.0 0.00 0.00 0.00 96 1008.2
20260504011721 53 0 0.0 0.0 0.00 0.00 0.00 95 1008.0
20260504011218 53 358 0.0 0.0 0.00 0.00 0.00 94 1008.0
20260504010714 53 358 0.0 1.0 0.00 0.00 0.00 94 1008.1
20260504010210 53 354 1.0 1.0 0.00 0.00 0.00 94 1007.8
20260504005706 53 354 0.0 1.0 0.00 0.00 0.00 94 1007.7
20260504005203 53 356 1.0 1.0 0.00 0.00 0.00 94 1007.7
20260504004702 53 344 0.0 1.0 0.00 0.00 0.00 94 1007.5
20260504004157 53 347 0.0 1.0 0.00 0.00 0.00 93 1007.6
20260504003654 54 338 2.0 2.0 0.00 0.00 0.00 93 1007.8
20260504003151 54 342 0.0 1.0 0.00 0.00 0.00 93 1007.6
20260504002648 53 347 1.0 2.0 0.00 0.00 0.00 94 1007.3
20260504002145 53 348 2.0 2.0 0.00 0.00 0.00 94 1007.3
20260504001643 53 350 1.0 2.0 0.00 0.00 0.00 94 1007.4
20260504001139 53 350 0.0 1.0 0.00 0.00 0.00 94 1007.3
20260504000636 53 344 1.0 2.0 0.00 0.00 0.00 94 1007.7
20260504000134 53 335 2.0 2.0 0.00 0.00 0.00 94 1007.2
20260503235631 53 343 0.0 0.0 0.00 0.00 0.00 94 1007.1
20260503235128 53 348 0.0 0.0 0.00 0.00 0.00 94 1007.0
20260503234626 53 333 1.0 1.0 0.00 0.00 0.00 94 1007.2
20260503234124 53 351 1.0 1.0 0.00 0.00 0.00 94 1007.2
20260503233621 54 345 1.0 1.0 0.00 0.00 0.00 93 1007.3
20260503233116 53 340 1.0 1.0 0.00 0.00 0.00 93 1006.9
20260503232613 53 352 1.0 1.0 0.00 0.00 0.00 94 1007.1
20260503232111 54 331 2.0 2.0 0.00 0.00 0.00 94 1007.0
20260503231609 54 349 0.0 1.0 0.00 0.00 0.00 93 1006.8
20260503231105 54 313 3.0 3.0 0.00 0.00 0.00 93 1006.9
20260503230602 54 334 2.0 2.0 0.00 0.00 0.00 92 1007.0
20260503230059 54 343 2.0 2.0 0.00 0.00 0.00 92 1006.9
20260503225556 54 344 1.0 2.0 0.00 0.00 0.00 92 1007.1
20260503225051 54 317 2.0 2.0 0.00 0.00 0.00 92 1006.9
20260503224549 54 343 1.0 1.0 0.00 0.00 0.00 92 1007.0
20260503224047 54 333 2.0 2.0 0.00 0.00 0.00 91 1007.1
20260503223544 54 339 3.0 3.0 0.00 0.00 0.00 91 1007.4
20260503223039 54 316 1.0 1.0 0.00 0.00 0.00 91 1007.4
20260503222538 55 333 1.0 1.0 0.00 0.00 0.00 90 1007.3
20260503222036 55 350 0.0 0.0 0.00 0.00 0.00 91 1007.2
20260503221533 55 354 1.0 1.0 0.00 0.00 0.00 90 1007.3
20260503221031 55 352 1.0 1.0 0.00 0.00 0.00 90 1007.3
20260503220527 55 353 0.0 0.0 0.00 0.00 0.00 91 1007.5
20260503220024 54 346 0.0 0.0 0.00 0.00 0.00 92 1007.4
20260503215521 54 354 0.0 0.0 0.00 0.00 0.00 93 1007.4
20260503215018 54 353 0.0 0.0 0.00 0.00 0.00 94 1007.4
20260503214516 54 352 0.0 0.0 0.00 0.00 0.00 93 1007.8
20260503214012 54 11 0.0 1.0 0.00 0.00 0.00 92 1008.1
20260503213511 54 19 0.0 0.0 0.00 0.00 0.00 93 1008.1
20260503213007 54 52 1.0 2.0 0.00 0.00 0.00 93 1008.2
20260503212505 54 348 0.0 0.0 0.00 0.00 0.00 94 1008.0
20260503212002 53 14 0.0 0.0 0.00 0.00 0.00 93 1007.9
20260503211459 53 357 0.0 0.0 0.00 0.00 0.00 93 1007.7
20260503210954 53 8 0.0 0.0 0.00 0.00 0.00 94 1007.6
20260503210452 53 10 0.0 0.0 0.00 0.00 0.00 94 1007.8
20260503205952 53 326 0.0 0.0 0.00 0.00 0.00 94 1007.6
20260503205449 53 353 0.0 0.0 0.00 0.00 0.00 94 1007.5
20260503204945 53 352 0.0 0.0 0.00 0.00 0.00 94 1007.5
20260503204442 53 344 1.0 1.0 0.00 0.00 0.00 94 1007.4
20260503203939 53 348 0.0 1.0 0.00 0.00 0.00 94 1007.4
20260503203437 53 348 1.0 1.0 0.00 0.00 0.00 95 1007.5
20260503202933 53 345 0.0 0.0 0.00 0.00 0.00 95 1007.2
20260503202432 53 350 1.0 1.0 0.00 0.00 0.00 95 1007.2
20260503201930 53 347 1.0 1.0 0.00 0.00 0.00 95 1007.4
20260503201427 53 347 1.0 1.0 0.00 0.00 0.00 95 1007.5
20260503200924 53 340 1.0 1.0 0.00 0.00 0.00 95 1007.2
20260503200420 53 345 1.0 1.0 0.00 0.00 0.00 95 1007.3
20260503195917 53 324 2.0 2.0 0.00 0.00 0.00 95 1007.4
20260503195415 53 345 0.0 0.0 0.00 0.00 0.00 95 1007.4
20260503194911 53 348 0.0 0.0 0.00 0.00 0.00 95 1007.4
20260503194408 53 336 1.0 2.0 0.00 0.00 0.00 95 1007.2
20260503193903 53 347 1.0 1.0 0.00 0.00 0.00 95 1007.0
20260503193359 53 334 1.0 2.0 0.00 0.00 0.00 95 1007.4
20260503192855 53 344 1.0 1.0 0.00 0.00 0.00 95 1007.2
20260503192350 53 340 2.0 2.0 0.00 0.00 0.00 95 1007.4
20260503191847 53 339 1.0 2.0 0.00 0.00 0.00 95 1007.2
20260503191345 53 346 0.0 0.0 0.00 0.00 0.00 95 1007.2
20260503190841 53 345 1.0 1.0 0.00 0.00 0.00 94 1007.2
20260503190338 53 335 2.0 2.0 0.00 0.00 0.00 94 1007.0
20260503185835 54 345 0.0 0.0 0.00 0.00 0.00 94 1007.2
20260503185331 54 345 0.0 0.0 0.00 0.00 0.00 94 1006.9
20260503184831 53 345 0.0 0.0 0.00 0.00 0.00 95 1007.0
20260503184327 53 346 0.0 0.0 0.00 0.00 0.00 95 1006.9
20260503183823 53 346 0.0 0.0 0.00 0.00 0.00 95 1006.8
20260503183321 53 347 0.0 0.0 0.00 0.00 0.00 94 1006.9
20260503182818 54 347 0.0 0.0 0.00 0.00 0.00 94 1007.0
20260503182317 54 357 0.0 0.0 0.00 0.00 0.00 94 1006.8
20260503181814 54 357 0.0 0.0 0.00 0.00 0.00 95 1006.8
20260503181311 54 1 0.0 0.0 0.00 0.00 0.00 95 1006.9
20260503180807 53 355 0.0 0.0 0.00 0.00 0.00 95 1007.1
20260503180306 53 345 0.0 0.0 0.00 0.00 0.00 95 1006.6
20260503175801 53 346 0.0 0.0 0.00 0.00 0.00 95 1006.8
20260503175300 53 347 0.0 0.0 0.00 0.00 0.00 96 1006.9
20260503174755 53 359 0.0 0.0 0.00 0.00 0.00 96 1006.8
20260503174253 53 350 0.0 0.0 0.00 0.00 0.00 97 1006.8
20260503173748 52 345 1.0 1.0 0.00 0.00 0.00 97 1006.7
20260503173244 53 348 0.0 0.0 0.00 0.00 0.00 98 1006.6
20260503172741 52 352 1.0 1.0 0.00 0.00 0.00 98 1006.8
20260503172238 52 349 1.0 1.0 0.00 0.00 0.00 98 1006.7
20260503171735 52 345 1.0 1.0 0.00 0.00 0.00 99 1006.8
20260503171232 52 345 0.0 1.0 0.00 0.00 0.00 99 1006.8
20260503170729 52 349 0.0 0.0 0.00 0.00 0.00 99 1006.8
20260503170226 52 348 0.0 0.0 0.00 0.00 0.00 99 1006.9
20260503160147 51 353 0.0 0.0 0.00 0.00 0.00 99 1006.6
20260503150618 51 352 0.0 0.0 0.00 0.00 0.00 99 1006.4
20260503150114 51 352 0.0 0.0 0.00 0.00 0.00 99 1006.4
20260503131007 50 345 0.0 0.0 0.00 0.00 0.00 99 1005.3
20260503130505 50 345 0.0 0.0 0.00 0.00 0.00 99 1005.5
20260503110355 51 345 0.0 0.0 0.00 0.00 0.00 99 1005.6
20260503090241 51 345 0.0 0.0 0.00 0.00 0.00 99 1006.3
20260503081209 51 345 0.0 0.0 0.00 0.00 0.00 98 1006.4
20260503080704 51 345 0.0 0.0 0.00 0.00 0.00 98 1006.5
20260503080201 51 345 0.0 0.0 0.00 0.00 0.00 98 1006.5